User: anonymous   Login
Location: Tucson
(32.2217°N, 110.9265°W)
Time: 16:29:55
(UTC-07:00)
Language:

RS-15 - Orbit

View from above orbital plane
View from above orbital plane
View from above satellite
View from above satellite

Ground track
Ground track

The orbit data is extracted from the following two-line orbital elements,

1 23439U 94085A   21340.58455286 -.00000037  00000-0  15882-3 0  9998
2 23439  64.8127  97.5610 0165265 305.4563  53.1029 11.27570461109745
Epoch (UTC): 06 December 2021 14:01:45
Eccentricity: 0.0165265
inclination: 64.8127°
perigee height: 1883 km
apogee height: 2161 km
right ascension of ascending node: 97.5610°
argument of perigee: 305.4563°
revolutions per day: 11.27570461
mean anomaly at epoch: 53.1029°
orbit number at epoch: 10974

The dashed part of the orbit path shows where the satellite is in the earth's shadow,  

DLR